Weather History for San Diego, CA

Change the Weather History Date:

Friday, November 23, 2012

  Actual Average Record
Temperature  
Mean Temperature 61 °F 60 °F  
Max Temperature 67 °F 68 °F 86 °F (1950)
Min Temperature 55 °F 52 °F 38 °F (1931)
Degree Days  
Heating Degree Days 4 6  
Month to date heating degree days 66 81  
Since 1 July heating degree days 70 102  
Cooling Degree Days 0 0  
Month to date cooling degree days 16 11  
Year to date cooling degree days 899 718  
Growing Degree Days 10 (Base 50)    
Moisture  
Dew Point 54 °F    
Average Humidity 84    
Maximum Humidity 100    
Minimum Humidity 67    
Precipitation  
Precipitation 0.00 in 0.04 in 1.75 in (1887)
Month to date precipitation 0.18 0.72  
Year to date precipitation 4.34 8.52  
Since 1 July precipitation 0.88 1.49  
Snow  
Snow 0.00 in - - ()
Month to date snowfall 0.0  
Year to date snowfall 0.0  
Since 1 July snowfall 0.0  
Snow Depth 0.00 in    
Sea Level Pressure  
Sea Level Pressure 30.12 in    
Wind  
Wind Speed 4 mph (NNW)    
Max Wind Speed 10 mph    
Max Gust Speed 13 mph    
Visibility 3 miles    
Events Fog    
T = Trace of Precipitation, MM = Missing Value Source: NWS Daily Summary

Daily Weather History Graph

Daily Weather History Graph

Search for Another Location

Airport:

Trip Planner

Search our weather history database for the weather conditions in past years. The results will help you decide how hot, cold, wet, or windy it might be!

Date:

Astronomy

Nov. 23, 2012 Rise Set
Actual Time 6:26 AM PST 4:43 PM PST
Civil Twilight 5:59 AM PST 5:10 PM PST
Nautical Twilight 5:29 AM PST 5:40 PM PST
Astronomical Twilight 5:00 AM PST 6:10 PM PST
Moon 1:49 PM PST (11/23) 2:02 AM PST (11/23)
Length of Visible Light 11h 10m
Length of Day
10h 17m
Waxing Gibbous, 80% of the Moon is Illuminated
Nov 23
Waxing Gibbous
Nov 28
Full
Dec 6
Last Quarter
Dec 13
New
Dec 19
First Quarter

Hourly Weather History & Observations

Time (PST) Temp. Dew Point Humidity Pressure Visibility Wind Dir Wind Speed Gust Speed Precip Events Conditions
12:40 AM 55.4 °F 53.6 °F 94% 30.13 in 6.0 mi Calm Calm - N/A   Mostly Cloudy
12:51 AM 55.9 °F 52.0 °F 87% 30.13 in 7.0 mi Calm Calm - N/A   Mostly Cloudy
1:51 AM 55.9 °F 53.1 °F 90% 30.13 in 7.0 mi Calm Calm - N/A   Overcast
2:33 AM 57.2 °F 53.6 °F 88% 30.13 in 6.0 mi Calm Calm - N/A   Overcast
2:51 AM 57.0 °F 55.0 °F 93% 30.13 in 4.0 mi Calm Calm - N/A   Overcast
3:43 AM 57.2 °F 53.6 °F 88% 30.12 in 4.0 mi North 4.6 mph - N/A   Overcast
3:51 AM 57.0 °F 54.0 °F 89% 30.12 in 3.0 mi NNE 3.5 mph - N/A   Overcast
4:51 AM 55.9 °F 55.0 °F 97% 30.12 in 2.0 mi North 6.9 mph - N/A   Overcast
5:51 AM 55.9 °F 54.0 °F 93% 30.13 in 2.0 mi North 3.5 mph - N/A   Overcast
6:09 AM 55.4 °F 53.6 °F 94% 30.13 in 1.2 mi Calm Calm - N/A   Overcast
6:21 AM 55.4 °F 53.6 °F 94% 30.13 in 2.0 mi Calm Calm - N/A   Overcast
6:28 AM 55.4 °F 53.6 °F 94% 30.13 in 1.8 mi NNE 3.5 mph - N/A   Overcast
6:31 AM 55.4 °F 53.6 °F 94% 30.14 in 1.0 mi NE 3.5 mph - N/A   Overcast
6:42 AM 55.4 °F 53.6 °F 94% 30.14 in 0.5 mi NE 3.5 mph - N/A Fog Fog
6:51 AM 55.0 °F 54.0 °F 96% 30.14 in 0.5 mi Calm Calm - N/A Fog Fog
7:51 AM 55.0 °F 54.0 °F 96% 30.16 in 0.2 mi Calm Calm - N/A Fog Fog
8:15 AM 55.4 °F 53.6 °F 94% 30.16 in 0.5 mi Calm Calm - N/A Fog Fog
8:47 AM 55.4 °F 53.6 °F 94% 30.17 in 1.5 mi North 3.5 mph - N/A   Overcast
8:51 AM 55.9 °F 54.0 °F 93% 30.17 in 1.5 mi Calm Calm - N/A   Overcast
9:14 AM 57.2 °F 53.6 °F 88% 30.17 in 2.0 mi Variable 3.5 mph - N/A   Overcast
9:27 AM 57.2 °F 53.6 °F 88% 30.17 in 4.0 mi NW 4.6 mph - N/A   Overcast
9:34 AM 57.2 °F 53.6 °F 88% 30.17 in 4.0 mi NNW 6.9 mph - N/A   Scattered Clouds
9:51 AM 60.1 °F 54.0 °F 80% 30.16 in 10.0 mi NNW 4.6 mph - N/A   Partly Cloudy
10:51 AM 66.0 °F 55.0 °F 68% 30.14 in 10.0 mi NW 6.9 mph - N/A   Partly Cloudy
11:51 AM 64.0 °F 54.0 °F 70% 30.12 in 10.0 mi NW 8.1 mph - N/A   Partly Cloudy
12:51 PM 64.9 °F 53.1 °F 65% 30.10 in 10.0 mi West 5.8 mph - N/A   Partly Cloudy
1:51 PM 64.9 °F 55.0 °F 70% 30.09 in 10.0 mi WNW 8.1 mph - N/A   Partly Cloudy
2:51 PM 64.0 °F 55.9 °F 75% 30.08 in 5.0 mi NW 9.2 mph - N/A   Haze
3:43 PM 60.8 °F 55.4 °F 82% 30.09 in 2.5 mi WNW 5.8 mph - N/A   Haze
3:51 PM 61.0 °F 55.9 °F 83% 30.09 in 2.5 mi NW 5.8 mph - N/A   Haze
4:51 PM 59.0 °F 55.0 °F 87% 30.09 in 2.5 mi WNW 4.6 mph - N/A   Scattered Clouds
5:51 PM 57.9 °F 55.0 °F 90% 30.09 in 2.5 mi WNW 3.5 mph - N/A   Mostly Cloudy
6:22 PM 57.2 °F 55.4 °F 94% 30.10 in 2.5 mi WNW 3.5 mph - N/A   Mostly Cloudy
6:51 PM 57.9 °F 55.0 °F 90% 30.11 in 2.5 mi WNW 3.5 mph - N/A   Mostly Cloudy
7:00 PM 57.2 °F 55.4 °F 94% 30.11 in 2.5 mi NW 3.5 mph - N/A   Mostly Cloudy
7:51 PM 57.0 °F 54.0 °F 89% 30.11 in 2.5 mi North 4.6 mph - N/A   Mostly Cloudy
8:16 PM 55.4 °F 53.6 °F 94% 30.12 in 1.5 mi NW 3.5 mph - N/A   Mostly Cloudy
8:24 PM 55.4 °F 53.6 °F 94% 30.12 in 1.0 mi NNW 4.6 mph - N/A   Mostly Cloudy
8:34 PM 55.4 °F 53.6 °F 94% 30.12 in 0.5 mi NNW 3.5 mph - N/A Fog Fog
8:51 PM 54.0 °F 53.1 °F 97% 30.12 in 0.5 mi NNW 3.5 mph - N/A Fog Fog
9:06 PM 53.6 °F 53.6 °F 100% 30.12 in 0.5 mi North 3.5 mph - N/A Fog Fog
9:18 PM 53.6 °F 53.6 °F 100% 30.12 in 0.5 mi NW 4.6 mph - N/A Fog Fog
9:25 PM 53.6 °F 53.6 °F 100% 30.12 in 0.5 mi North 3.5 mph - N/A Fog Fog
9:51 PM 54.0 °F 53.1 °F 97% 30.12 in 0.5 mi North 3.5 mph - N/A Fog Fog
10:03 PM 53.6 °F 53.6 °F 100% 30.11 in 0.2 mi NNW 4.6 mph - N/A Fog Fog
10:20 PM 53.6 °F 53.6 °F 100% 30.11 in 0.5 mi NNW 5.8 mph - N/A Fog Fog
10:51 PM 54.0 °F 53.1 °F 97% 30.11 in 0.5 mi North 3.5 mph - N/A Fog Fog
11:08 PM 53.6 °F 53.6 °F 100% 30.11 in 0.5 mi North 3.5 mph - N/A Fog Fog
11:19 PM 53.6 °F 53.6 °F 100% 30.11 in 0.5 mi NNW 4.6 mph - N/A Fog Fog
11:40 PM 53.6 °F 53.6 °F 100% 30.11 in 0.5 mi North 3.5 mph - N/A Fog Fog
11:51 PM 53.1 °F 53.1 °F 100% 30.11 in 0.5 mi North 4.6 mph - N/A Fog Fog